Time,TemperatureF,DewpointF,PressureIn,WindDirection,WindDirectionDegrees,WindSpeedMPH,WindSpeedGustMPH,Humidity,HourlyPrecipIn,Conditions,Clouds,dailyrainin,SolarRadiationWatts/m^2,SoftwareType,DateUTC
2013-04-09 00:00:00,67.6,49.3,29.89,SSW,212,4.0,12.0,52,0.00,,,0.00,0,HR-IXPWINDi_r2_v1.2.,2013-04-09 04:00:00,
2013-04-09 00:05:00,67.6,49.3,29.89,SSW,203,7.0,14.0,52,0.00,,,0.00,0,HR-IXPWINDi_r2_v1.2.,2013-04-09 04:05:00,
2013-04-09 00:10:00,67.6,49.3,29.90,SSW,198,9.0,14.0,52,0.00,,,0.00,0,HR-IXPWINDi_r2_v1.2.,2013-04-09 04:10:00,
2013-04-09 00:15:00,67.4,49.6,29.90,SW,227,7.0,14.0,53,0.00,,,0.00,0,HR-IXPWINDi_r2_v1.2.,2013-04-09 04:15:00,
2013-04-09 00:20:00,67.3,49.5,29.90,SW,236,2.0,11.0,53,0.00,,,0.00,0,HR-IXPWINDi_r2_v1.2.,2013-04-09 04:20:00,
2013-04-09 00:27:00,67.1,49.9,29.89,SW,215,4.0,10.0,54,0.00,,,0.00,0,HR-IXPWINDi_r2_v1.2.,2013-04-09 04:27:00,
2013-04-09 00:32:00,66.9,49.7,29.89,SW,224,6.0,10.0,54,0.00,,,0.00,0,HR-IXPWINDi_r2_v1.2.,2013-04-09 04:32:00,
2013-04-09 00:37:00,66.9,49.7,29.90,SSW,204,4.0,10.0,54,0.00,,,0.00,0,HR-IXPWINDi_r2_v1.2.,2013-04-09 04:37:00,
2013-04-09 00:42:00,66.8,49.6,29.90,SW,214,3.0,13.0,54,0.00,,,0.00,0,HR-IXPWINDi_r2_v1.2.,2013-04-09 04:42:00,
2013-04-09 00:47:00,66.8,49.6,29.90,SSW,211,5.0,13.0,54,0.00,,,0.00,0,HR-IXPWINDi_r2_v1.2.,2013-04-09 04:47:00,
2013-04-09 00:52:00,66.8,49.6,29.90,WSW,248,4.0,11.0,54,0.00,,,0.00,0,HR-IXPWINDi_r2_v1.2.,2013-04-09 04:52:00,
2013-04-09 00:58:00,66.6,49.4,29.90,SW,223,6.0,11.0,54,0.00,,,0.00,0,HR-IXPWINDi_r2_v1.2.,2013-04-09 04:58:00,
2013-04-09 01:03:00,66.4,49.2,29.90,SSW,212,3.0,11.0,54,0.00,,,0.00,0,HR-IXPWINDi_r2_v1.2.,2013-04-09 05:03:00,
2013-04-09 01:08:00,66.4,49.7,29.90,SW,215,3.0,9.0,55,0.00,,,0.00,0,HR-IXPWINDi_r2_v1.2.,2013-04-09 05:08:00,
2013-04-09 01:13:00,66.1,49.4,29.90,SW,222,0.0,5.0,55,0.00,,,0.00,0,HR-IXPWINDi_r2_v1.2.,2013-04-09 05:13:00,
2013-04-09 01:19:00,66.0,49.8,29.90,SW,234,1.0,10.0,56,0.00,,,0.00,0,HR-IXPWINDi_r2_v1.2.,2013-04-09 05:19:00,
2013-04-09 01:24:00,65.8,49.6,29.90,SW,227,2.0,10.0,56,0.00,,,0.00,0,HR-IXPWINDi_r2_v1.2.,2013-04-09 05:24:00,
2013-04-09 01:29:00,65.6,49.9,29.90,SW,231,0.0,7.0,57,0.00,,,0.00,0,HR-IXPWINDi_r2_v1.2.,2013-04-09 05:29:00,
2013-04-09 01:34:00,65.6,49.9,29.90,SW,224,2.0,7.0,57,0.00,,,0.00,0,HR-IXPWINDi_r2_v1.2.,2013-04-09 05:34:00,
2013-04-09 01:39:00,65.5,49.8,29.91,SSW,211,5.0,7.0,57,0.00,,,0.00,0,HR-IXPWINDi_r2_v1.2.,2013-04-09 05:39:00,
2013-04-09 01:44:00,65.5,49.8,29.91,SW,229,0.0,7.0,57,0.00,,,0.00,0,HR-IXPWINDi_r2_v1.2.,2013-04-09 05:44:00,
2013-04-09 01:50:00,65.3,50.1,29.91,NW,317,1.0,6.0,58,0.00,,,0.00,0,HR-IXPWINDi_r2_v1.2.,2013-04-09 05:50:00,
2013-04-09 01:55:00,65.3,50.1,29.91,SSW,199,1.0,5.0,58,0.00,,,0.00,0,HR-IXPWINDi_r2_v1.2.,2013-04-09 05:55:00,
2013-04-09 02:00:00,65.3,50.1,29.91,SW,220,2.0,5.0,58,0.00,,,0.00,0,HR-IXPWINDi_r2_v1.2.,2013-04-09 06:00:00,
2013-04-09 02:05:00,65.3,50.1,29.91,SW,224,2.0,6.0,58,0.00,,,0.00,0,HR-IXPWINDi_r2_v1.2.,2013-04-09 06:05:00,
2013-04-09 02:10:00,65.3,50.6,29.91,SW,228,1.0,7.0,59,0.00,,,0.00,0,HR-IXPWINDi_r2_v1.2.,2013-04-09 06:10:00,
2013-04-09 02:16:00,65.3,50.6,29.91,SW,216,4.0,10.0,59,0.00,,,0.00,0,HR-IXPWINDi_r2_v1.2.,2013-04-09 06:16:00,
2013-04-09 02:21:00,65.3,50.6,29.91,SSW,212,6.0,13.0,59,0.00,,,0.00,0,HR-IXPWINDi_r2_v1.2.,2013-04-09 06:21:00,
2013-04-09 02:26:00,65.5,50.7,29.91,WSW,241,5.0,13.0,59,0.00,,,0.00,0,HR-IXPWINDi_r2_v1.2.,2013-04-09 06:26:00,
2013-04-09 02:31:00,65.5,50.7,29.91,West,271,0.0,9.0,59,0.00,,,0.00,0,HR-IXPWINDi_r2_v1.2.,2013-04-09 06:31:00,
2013-04-09 02:36:00,65.5,50.7,29.91,WNW,287,1.0,7.0,59,0.00,,,0.00,0,HR-IXPWINDi_r2_v1.2.,2013-04-09 06:36:00,
2013-04-09 02:42:00,65.3,51.0,29.91,SW,236,5.0,7.0,60,0.00,,,0.00,0,HR-IXPWINDi_r2_v1.2.,2013-04-09 06:42:00,
2013-04-09 02:47:00,65.2,50.9,29.91,SW,231,3.0,7.0,60,0.00,,,0.00,0,HR-IXPWINDi_r2_v1.2.,2013-04-09 06:47:00,
2013-04-09 02:52:00,65.2,51.4,29.91,SW,224,0.0,10.0,61,0.00,,,0.00,0,HR-IXPWINDi_r2_v1.2.,2013-04-09 06:52:00,
2013-04-09 02:57:00,65.2,51.4,29.91,SW,221,1.0,10.0,61,0.00,,,0.00,0,HR-IXPWINDi_r2_v1.2.,2013-04-09 06:57:00,
2013-04-09 03:02:00,65.2,51.4,29.91,SW,227,2.0,7.0,61,0.00,,,0.00,0,HR-IXPWINDi_r2_v1.2.,2013-04-09 07:02:00,
2013-04-09 03:08:00,65.2,51.4,29.91,SSW,211,5.0,6.0,61,0.00,,,0.00,0,HR-IXPWINDi_r2_v1.2.,2013-04-09 07:08:00,
2013-04-09 03:13:00,65.0,51.6,29.91,SW,217,4.0,9.0,62,0.00,,,0.00,0,HR-IXPWINDi_r2_v1.2.,2013-04-09 07:13:00,
2013-04-09 03:18:00,65.0,51.6,29.91,SSW,208,9.0,10.0,62,0.00,,,0.00,0,HR-IXPWINDi_r2_v1.2.,2013-04-09 07:18:00,
2013-04-09 03:23:00,64.8,51.9,29.91,SW,229,4.0,10.0,63,0.00,,,0.00,0,HR-IXPWINDi_r2_v1.2.,2013-04-09 07:23:00,
2013-04-09 03:28:00,64.8,51.9,29.91,SSW,198,0.0,10.0,63,0.00,,,0.00,0,HR-IXPWINDi_r2_v1.2.,2013-04-09 07:28:00,
2013-04-09 03:34:00,64.7,51.8,29.91,SW,230,1.0,6.0,63,0.00,,,0.00,0,HR-IXPWINDi_r2_v1.2.,2013-04-09 07:34:00,
2013-04-09 03:39:00,64.7,51.8,29.92,SW,230,1.0,6.0,63,0.00,,,0.00,0,HR-IXPWINDi_r2_v1.2.,2013-04-09 07:39:00,
2013-04-09 03:44:00,64.5,52.0,29.92,SW,214,2.0,6.0,64,0.00,,,0.00,0,HR-IXPWINDi_r2_v1.2.,2013-04-09 07:44:00,
2013-04-09 03:49:00,64.5,52.0,29.92,SW,236,5.0,6.0,64,0.00,,,0.00,0,HR-IXPWINDi_r2_v1.2.,2013-04-09 07:49:00,
2013-04-09 03:55:00,64.5,52.0,29.92,West,276,0.0,7.0,64,0.00,,,0.00,0,HR-IXPWINDi_r2_v1.2.,2013-04-09 07:55:00,
2013-04-09 04:00:00,64.3,51.8,29.92,WNW,287,2.0,7.0,64,0.00,,,0.00,0,HR-IXPWINDi_r2_v1.2.,2013-04-09 08:00:00,
2013-04-09 04:05:00,64.3,51.8,29.92,WSW,249,0.0,6.0,64,0.00,,,0.00,0,HR-IXPWINDi_r2_v1.2.,2013-04-09 08:05:00,
2013-04-09 04:11:00,64.0,51.9,29.93,SW,221,0.0,6.0,65,0.00,,,0.00,0,HR-IXPWINDi_r2_v1.2.,2013-04-09 08:11:00,
2013-04-09 04:16:00,64.0,51.9,29.93,SW,222,5.0,11.0,65,0.00,,,0.00,0,HR-IXPWINDi_r2_v1.2.,2013-04-09 08:16:00,
2013-04-09 04:21:00,63.9,51.8,29.93,WNW,283,6.0,11.0,65,0.00,,,0.00,0,HR-IXPWINDi_r2_v1.2.,2013-04-09 08:21:00,
2013-04-09 04:26:00,63.9,52.3,29.93,SW,217,1.0,8.0,66,0.00,,,0.00,0,HR-IXPWINDi_r2_v1.2.,2013-04-09 08:26:00,
2013-04-09 04:31:00,63.7,52.1,29.93,SW,217,1.0,7.0,66,0.00,,,0.00,0,HR-IXPWINDi_r2_v1.2.,2013-04-09 08:31:00,
2013-04-09 04:37:00,63.4,52.2,29.93,WNW,288,4.0,6.0,67,0.00,,,0.00,0,HR-IXPWINDi_r2_v1.2.,2013-04-09 08:37:00,
2013-04-09 04:42:00,63.2,52.0,29.93,SW,229,3.0,5.0,67,0.00,,,0.00,0,HR-IXPWINDi_r2_v1.2.,2013-04-09 08:42:00,
2013-04-09 04:47:00,63.1,52.3,29.93,SW,223,4.0,5.0,68,0.00,,,0.00,0,HR-IXPWINDi_r2_v1.2.,2013-04-09 08:47:00,
2013-04-09 04:53:00,62.9,52.1,29.94,WNW,289,2.0,5.0,68,0.00,,,0.00,0,HR-IXPWINDi_r2_v1.2.,2013-04-09 08:53:00,
2013-04-09 04:58:00,62.9,52.1,29.94,West,272,0.0,5.0,68,0.00,,,0.00,0,HR-IXPWINDi_r2_v1.2.,2013-04-09 08:58:00,
2013-04-09 05:03:00,62.7,51.9,29.94,SW,224,1.0,4.0,68,0.00,,,0.00,0,HR-IXPWINDi_r2_v1.2.,2013-04-09 09:03:00,
2013-04-09 05:08:00,62.6,52.2,29.95,SW,224,0.0,4.0,69,0.00,,,0.00,0,HR-IXPWINDi_r2_v1.2.,2013-04-09 09:08:00,
2013-04-09 05:14:00,62.4,52.0,29.95,WNW,302,0.0,2.0,69,0.00,,,0.00,0,HR-IXPWINDi_r2_v1.2.,2013-04-09 09:14:00,
2013-04-09 05:19:00,62.4,52.0,29.95,WNW,302,0.0,2.0,69,0.00,,,0.00,0,HR-IXPWINDi_r2_v1.2.,2013-04-09 09:19:00,
2013-04-09 05:24:00,62.3,52.3,29.95,WNW,302,0.0,2.0,70,0.00,,,0.00,0,HR-IXPWINDi_r2_v1.2.,2013-04-09 09:24:00,
2013-04-09 05:29:00,62.0,52.0,29.95,WNW,302,0.0,1.0,70,0.00,,,0.00,0,HR-IXPWINDi_r2_v1.2.,2013-04-09 09:29:00,
2013-04-09 05:34:00,61.8,51.9,29.95,WNW,302,0.0,1.0,70,0.00,,,0.00,0,HR-IXPWINDi_r2_v1.2.,2013-04-09 09:34:00,
2013-04-09 05:39:00,61.6,52.0,29.95,WNW,302,0.0,1.0,71,0.00,,,0.00,0,HR-IXPWINDi_r2_v1.2.,2013-04-09 09:39:00,
2013-04-09 05:44:00,61.5,52.0,29.95,WNW,302,0.0,1.0,71,0.00,,,0.00,0,HR-IXPWINDi_r2_v1.2.,2013-04-09 09:44:00,
2013-04-09 05:49:00,61.2,51.7,29.95,WNW,302,0.0,1.0,71,0.00,,,0.00,0,HR-IXPWINDi_r2_v1.2.,2013-04-09 09:49:00,
2013-04-09 05:55:00,61.0,51.8,29.96,WNW,302,0.0,0.0,72,0.00,,,0.00,0,HR-IXPWINDi_r2_v1.2.,2013-04-09 09:55:00,
2013-04-09 06:00:00,60.5,51.0,29.96,WNW,302,0.0,0.0,71,0.00,,,0.00,0,HR-IXPWINDi_r2_v1.2.,2013-04-09 10:00:00,
2013-04-09 06:05:00,60.1,50.6,29.96,WNW,302,0.0,0.0,71,0.00,,,0.00,0,HR-IXPWINDi_r2_v1.2.,2013-04-09 10:05:00,
2013-04-09 06:10:00,59.6,50.1,29.97,WNW,302,0.0,0.0,71,0.00,,,0.00,0,HR-IXPWINDi_r2_v1.2.,2013-04-09 10:10:00,
2013-04-09 06:15:00,59.3,50.2,29.97,WNW,302,0.0,0.0,72,0.00,,,0.00,0,HR-IXPWINDi_r2_v1.2.,2013-04-09 10:15:00,
2013-04-09 06:20:00,59.2,50.5,29.97,WNW,302,0.0,0.0,73,0.00,,,0.00,0,HR-IXPWINDi_r2_v1.2.,2013-04-09 10:20:00,
2013-04-09 06:26:00,58.7,50.0,29.99,WNW,302,0.0,0.0,73,0.00,,,0.00,0,HR-IXPWINDi_r2_v1.2.,2013-04-09 10:26:00,
2013-04-09 06:31:00,58.3,50.0,29.99,WNW,302,0.0,0.0,74,0.00,,,0.00,0,HR-IXPWINDi_r2_v1.2.,2013-04-09 10:31:00,
2013-04-09 06:36:00,57.8,49.5,29.99,WNW,302,0.0,0.0,74,0.00,,,0.00,0,HR-IXPWINDi_r2_v1.2.,2013-04-09 10:36:00,
2013-04-09 06:41:00,57.3,49.7,29.99,WNW,302,0.0,0.0,76,0.00,,,0.00,0,HR-IXPWINDi_r2_v1.2.,2013-04-09 10:41:00,
2013-04-09 06:46:00,56.7,48.8,29.99,WNW,302,0.0,0.0,75,0.00,,,0.00,0,HR-IXPWINDi_r2_v1.2.,2013-04-09 10:46:00,
2013-04-09 06:51:00,56.5,49.3,30.00,WNW,302,0.0,0.0,77,0.00,,,0.00,5,HR-IXPWINDi_r2_v1.2.,2013-04-09 10:51:00,
2013-04-09 06:57:00,56.0,49.2,30.00,WNW,302,0.0,0.0,78,0.00,,,0.00,9,HR-IXPWINDi_r2_v1.2.,2013-04-09 10:57:00,
2013-04-09 07:02:00,55.6,48.8,30.00,WNW,302,0.0,0.0,78,0.00,,,0.00,14,HR-IXPWINDi_r2_v1.2.,2013-04-09 11:02:00,
2013-04-09 07:07:00,55.3,48.5,30.01,WNW,302,0.0,0.0,78,0.00,,,0.00,21,HR-IXPWINDi_r2_v1.2.,2013-04-09 11:07:00,
2013-04-09 07:12:00,55.0,48.5,30.01,WNW,302,0.0,0.0,79,0.00,,,0.00,28,HR-IXPWINDi_r2_v1.2.,2013-04-09 11:12:00,
2013-04-09 07:17:00,54.7,48.3,30.01,WNW,302,0.0,0.0,79,0.00,,,0.00,35,HR-IXPWINDi_r2_v1.2.,2013-04-09 11:17:00,
2013-04-09 07:22:00,54.4,48.0,30.01,WNW,302,0.0,0.0,79,0.00,,,0.00,46,HR-IXPWINDi_r2_v1.2.,2013-04-09 11:22:00,
2013-04-09 07:27:00,54.2,48.1,30.01,WNW,302,0.0,0.0,80,0.00,,,0.00,53,HR-IXPWINDi_r2_v1.2.,2013-04-09 11:27:00,
2013-04-09 07:32:00,54.2,48.4,30.01,WNW,302,0.0,0.0,81,0.00,,,0.00,58,HR-IXPWINDi_r2_v1.2.,2013-04-09 11:32:00,
2013-04-09 07:38:00,54.2,49.1,30.02,WNW,302,0.0,0.0,83,0.00,,,0.00,60,HR-IXPWINDi_r2_v1.2.,2013-04-09 11:38:00,
2013-04-09 07:43:00,54.1,49.3,30.02,WNW,302,0.0,0.0,84,0.00,,,0.00,62,HR-IXPWINDi_r2_v1.2.,2013-04-09 11:43:00,
2013-04-09 07:48:00,54.1,49.3,30.02,WNW,302,0.0,0.0,84,0.00,,,0.00,65,HR-IXPWINDi_r2_v1.2.,2013-04-09 11:48:00,
2013-04-09 07:53:00,54.1,49.6,30.03,WNW,302,0.0,0.0,85,0.00,,,0.00,84,HR-IXPWINDi_r2_v1.2.,2013-04-09 11:53:00,
2013-04-09 07:59:00,54.4,50.2,30.03,WNW,302,0.0,0.0,86,0.00,,,0.00,95,HR-IXPWINDi_r2_v1.2.,2013-04-09 11:59:00,
2013-04-09 08:04:00,54.5,50.3,30.03,WNW,302,0.0,0.0,86,0.00,,,0.00,104,HR-IXPWINDi_r2_v1.2.,2013-04-09 12:04:00,
2013-04-09 08:09:00,54.7,50.8,30.03,WNW,302,0.0,0.0,87,0.00,,,0.00,107,HR-IXPWINDi_r2_v1.2.,2013-04-09 12:09:00,
2013-04-09 08:14:00,55.0,51.1,30.03,WNW,302,0.0,0.0,87,0.00,,,0.00,93,HR-IXPWINDi_r2_v1.2.,2013-04-09 12:14:00,
2013-04-09 08:19:00,55.3,51.4,30.03,WNW,302,0.0,0.0,87,0.00,,,0.00,107,HR-IXPWINDi_r2_v1.2.,2013-04-09 12:19:00,
2013-04-09 08:25:00,55.6,52.0,30.03,WNW,302,0.0,0.0,88,0.00,,,0.00,171,HR-IXPWINDi_r2_v1.2.,2013-04-09 12:25:00,
2013-04-09 08:30:00,56.2,52.9,30.03,WNW,302,0.0,0.0,89,0.00,,,0.00,199,HR-IXPWINDi_r2_v1.2.,2013-04-09 12:30:00,
2013-04-09 08:35:00,56.6,53.0,30.03,WNW,302,0.0,0.0,88,0.00,,,0.00,206,HR-IXPWINDi_r2_v1.2.,2013-04-09 12:35:00,
2013-04-09 08:40:00,57.6,54.0,30.04,WNW,302,0.0,0.0,88,0.00,,,0.00,227,HR-IXPWINDi_r2_v1.2.,2013-04-09 12:40:00,
2013-04-09 08:45:00,58.6,54.7,30.04,WNW,302,0.0,1.0,87,0.00,,,0.00,269,HR-IXPWINDi_r2_v1.2.,2013-04-09 12:45:00,
2013-04-09 08:50:00,59.3,55.0,30.04,WNW,302,0.0,1.0,86,0.00,,,0.00,288,HR-IXPWINDi_r2_v1.2.,2013-04-09 12:50:00,
2013-04-09 08:55:00,60.1,55.5,30.03,WNW,302,2.0,2.0,85,0.00,,,0.00,251,HR-IXPWINDi_r2_v1.2.,2013-04-09 12:55:00,
2013-04-09 09:01:00,60.7,55.1,30.03,WNW,295,2.0,3.0,82,0.00,,,0.00,195,HR-IXPWINDi_r2_v1.2.,2013-04-09 13:01:00,
2013-04-09 09:06:00,61.3,55.0,30.03,WNW,295,2.0,3.0,80,0.00,,,0.00,302,HR-IXPWINDi_r2_v1.2.,2013-04-09 13:06:00,
2013-04-09 09:11:00,61.8,55.2,30.03,WNW,289,1.0,3.0,79,0.00,,,0.00,250,HR-IXPWINDi_r2_v1.2.,2013-04-09 13:11:00,
2013-04-09 09:16:00,62.4,55.0,30.03,SW,221,0.0,3.0,77,0.00,,,0.00,357,HR-IXPWINDi_r2_v1.2.,2013-04-09 13:16:00,
2013-04-09 09:21:00,62.7,54.6,30.03,SW,221,0.0,3.0,75,0.00,,,0.00,366,HR-IXPWINDi_r2_v1.2.,2013-04-09 13:21:00,
2013-04-09 09:26:00,63.2,54.7,30.03,West,281,1.0,2.0,74,0.00,,,0.00,388,HR-IXPWINDi_r2_v1.2.,2013-04-09 13:26:00,
2013-04-09 09:31:00,63.7,54.4,30.03,SSW,206,0.0,3.0,72,0.00,,,0.00,403,HR-IXPWINDi_r2_v1.2.,2013-04-09 13:31:00,
2013-04-09 09:37:00,64.0,54.3,30.02,WSW,250,0.0,3.0,71,0.00,,,0.00,360,HR-IXPWINDi_r2_v1.2.,2013-04-09 13:37:00,
2013-04-09 09:42:00,64.5,54.8,30.02,SW,225,0.0,4.0,71,0.00,,,0.00,432,HR-IXPWINDi_r2_v1.2.,2013-04-09 13:42:00,
2013-04-09 09:47:00,64.7,54.6,30.02,SW,225,1.0,4.0,70,0.00,,,0.00,455,HR-IXPWINDi_r2_v1.2.,2013-04-09 13:47:00,
2013-04-09 09:52:00,65.0,55.7,30.02,SSW,212,3.0,4.0,72,0.00,,,0.00,471,HR-IXPWINDi_r2_v1.2.,2013-04-09 13:52:00,
2013-04-09 09:58:00,65.3,55.6,30.02,NW,314,0.0,5.0,71,0.00,,,0.00,489,HR-IXPWINDi_r2_v1.2.,2013-04-09 13:58:00,
2013-04-09 10:03:00,65.5,55.0,30.02,SSW,208,0.0,5.0,69,0.00,,,0.00,506,HR-IXPWINDi_r2_v1.2.,2013-04-09 14:03:00,
2013-04-09 10:08:00,66.0,55.1,30.02,SE,146,2.0,5.0,68,0.00,,,0.00,519,HR-IXPWINDi_r2_v1.2.,2013-04-09 14:08:00,
2013-04-09 10:13:00,66.6,55.2,30.02,SSW,201,3.0,4.0,67,0.00,,,0.00,538,HR-IXPWINDi_r2_v1.2.,2013-04-09 14:13:00,
2013-04-09 10:19:00,66.8,55.4,30.02,SSW,212,2.0,7.0,67,0.00,,,0.00,552,HR-IXPWINDi_r2_v1.2.,2013-04-09 14:19:00,
2013-04-09 10:24:00,66.9,55.9,30.02,SSW,208,5.0,7.0,68,0.00,,,0.00,577,HR-IXPWINDi_r2_v1.2.,2013-04-09 14:24:00,
2013-04-09 10:29:00,67.1,54.5,30.02,South,184,1.0,8.0,64,0.00,,,0.00,575,HR-IXPWINDi_r2_v1.2.,2013-04-09 14:29:00,
2013-04-09 10:34:00,67.4,54.7,30.02,South,191,5.0,10.0,64,0.00,,,0.00,605,HR-IXPWINDi_r2_v1.2.,2013-04-09 14:34:00,
2013-04-09 10:40:00,67.6,54.5,30.02,SSE,162,1.0,10.0,63,0.00,,,0.00,605,HR-IXPWINDi_r2_v1.2.,2013-04-09 14:40:00,
2013-04-09 10:45:00,67.9,55.6,30.02,SSW,198,4.0,7.0,65,0.00,,,0.00,624,HR-IXPWINDi_r2_v1.2.,2013-04-09 14:45:00,
2013-04-09 10:50:00,68.3,55.2,30.02,SW,222,4.0,9.0,63,0.00,,,0.00,652,HR-IXPWINDi_r2_v1.2.,2013-04-09 14:50:00,
2013-04-09 10:56:00,68.6,55.9,30.02,SSW,211,0.0,11.0,64,0.00,,,0.00,643,HR-IXPWINDi_r2_v1.2.,2013-04-09 14:56:00,
2013-04-09 11:01:00,68.9,56.6,30.02,SSW,208,0.0,11.0,65,0.00,,,0.00,643,HR-IXPWINDi_r2_v1.2.,2013-04-09 15:01:00,
2013-04-09 11:06:00,69.6,55.9,30.01,SW,215,9.0,11.0,62,0.00,,,0.00,679,HR-IXPWINDi_r2_v1.2.,2013-04-09 15:06:00,
2013-04-09 11:11:00,69.8,56.6,30.01,South,183,5.0,11.0,63,0.00,,,0.00,668,HR-IXPWINDi_r2_v1.2.,2013-04-09 15:11:00,
2013-04-09 11:16:00,69.9,55.8,30.01,SSW,203,4.0,11.0,61,0.00,,,0.00,687,HR-IXPWINDi_r2_v1.2.,2013-04-09 15:16:00,
2013-04-09 11:22:00,70.6,56.4,30.01,SSW,195,7.0,7.0,61,0.00,,,0.00,737,HR-IXPWINDi_r2_v1.2.,2013-04-09 15:22:00,
2013-04-09 11:27:00,70.8,57.1,30.01,SSE,153,0.0,10.0,62,0.00,,,0.00,708,HR-IXPWINDi_r2_v1.2.,2013-04-09 15:27:00,
2013-04-09 11:32:00,70.8,56.6,30.01,SSW,196,10.0,12.0,61,0.00,,,0.00,717,HR-IXPWINDi_r2_v1.2.,2013-04-09 15:32:00,
2013-04-09 11:37:00,70.8,57.1,30.01,SSE,147,6.0,12.0,62,0.00,,,0.00,724,HR-IXPWINDi_r2_v1.2.,2013-04-09 15:37:00,
2013-04-09 11:43:00,71.1,56.9,30.01,SSW,213,10.0,13.0,61,0.00,,,0.00,719,HR-IXPWINDi_r2_v1.2.,2013-04-09 15:43:00,
2013-04-09 11:48:00,71.1,57.8,30.01,SW,226,1.0,13.0,63,0.00,,,0.00,770,HR-IXPWINDi_r2_v1.2.,2013-04-09 15:48:00,
2013-04-09 11:53:00,71.1,57.8,30.00,South,178,7.0,13.0,63,0.00,,,0.00,761,HR-IXPWINDi_r2_v1.2.,2013-04-09 15:53:00,
2013-04-09 11:58:00,71.5,57.3,30.00,WNW,295,4.0,9.0,61,0.00,,,0.00,759,HR-IXPWINDi_r2_v1.2.,2013-04-09 15:58:00,
2013-04-09 12:03:00,71.6,57.8,30.00,SSW,206,9.0,9.0,62,0.00,,,0.00,812,HR-IXPWINDi_r2_v1.2.,2013-04-09 16:03:00,
2013-04-09 12:09:00,71.6,56.5,29.99,West,259,3.0,9.0,59,0.00,,,0.00,272,HR-IXPWINDi_r2_v1.2.,2013-04-09 16:09:00,
2013-04-09 12:14:00,71.6,56.9,29.99,SW,220,4.0,10.0,60,0.00,,,0.00,817,HR-IXPWINDi_r2_v1.2.,2013-04-09 16:14:00,
2013-04-09 12:19:00,71.6,56.9,29.99,South,175,8.0,11.0,60,0.00,,,0.00,782,HR-IXPWINDi_r2_v1.2.,2013-04-09 16:19:00,
2013-04-09 12:25:00,72.0,56.4,29.98,SSW,198,6.0,11.0,58,0.00,,,0.00,798,HR-IXPWINDi_r2_v1.2.,2013-04-09 16:25:00,
2013-04-09 12:30:00,72.1,56.5,29.98,West,264,4.0,11.0,58,0.00,,,0.00,809,HR-IXPWINDi_r2_v1.2.,2013-04-09 16:30:00,
2013-04-09 12:35:00,72.0,56.4,29.98,SSW,205,10.0,13.0,58,0.00,,,0.00,904,HR-IXPWINDi_r2_v1.2.,2013-04-09 16:35:00,
2013-04-09 12:40:00,72.3,56.6,29.98,SSE,157,3.0,13.0,58,0.00,,,0.00,278,HR-IXPWINDi_r2_v1.2.,2013-04-09 16:40:00,
2013-04-09 12:45:00,72.5,56.8,29.98,SW,224,3.0,13.0,58,0.00,,,0.00,304,HR-IXPWINDi_r2_v1.2.,2013-04-09 16:45:00,
2013-04-09 12:50:00,73.0,56.8,29.98,SSE,156,1.0,10.0,57,0.00,,,0.00,944,HR-IXPWINDi_r2_v1.2.,2013-04-09 16:50:00,
2013-04-09 12:56:00,73.7,56.5,29.96,SSE,163,4.0,10.0,55,0.00,,,0.00,682,HR-IXPWINDi_r2_v1.2.,2013-04-09 16:56:00,
2013-04-09 13:01:00,74.6,57.3,29.96,SSW,200,6.0,11.0,55,0.00,,,0.00,879,HR-IXPWINDi_r2_v1.2.,2013-04-09 17:01:00,
2013-04-09 13:06:00,74.7,55.9,29.96,SSW,193,10.0,12.0,52,0.00,,,0.00,374,HR-IXPWINDi_r2_v1.2.,2013-04-09 17:06:00,
2013-04-09 13:11:00,74.9,56.6,29.96,WSW,238,10.0,13.0,53,0.00,,,0.00,380,HR-IXPWINDi_r2_v1.2.,2013-04-09 17:11:00,
2013-04-09 13:16:00,74.7,56.9,29.96,SSW,198,4.0,13.0,54,0.00,,,0.00,301,HR-IXPWINDi_r2_v1.2.,2013-04-09 17:16:00,
2013-04-09 13:22:00,74.6,56.8,29.96,SSE,149,3.0,13.0,54,0.00,,,0.00,271,HR-IXPWINDi_r2_v1.2.,2013-04-09 17:22:00,
2013-04-09 13:27:00,74.6,56.3,29.96,SSE,155,4.0,13.0,53,0.00,,,0.00,448,HR-IXPWINDi_r2_v1.2.,2013-04-09 17:27:00,
2013-04-09 13:32:00,75.3,56.9,29.96,SSE,158,1.0,11.0,53,0.00,,,0.00,1062,HR-IXPWINDi_r2_v1.2.,2013-04-09 17:32:00,
2013-04-09 13:37:00,75.8,56.3,29.94,SSE,148,0.0,7.0,51,0.00,,,0.00,990,HR-IXPWINDi_r2_v1.2.,2013-04-09 17:37:00,
2013-04-09 13:42:00,76.1,56.6,29.94,SW,231,9.0,17.0,51,0.00,,,0.00,990,HR-IXPWINDi_r2_v1.2.,2013-04-09 17:42:00,
2013-04-09 13:47:00,76.0,55.4,29.94,WSW,238,10.0,17.0,49,0.00,,,0.00,334,HR-IXPWINDi_r2_v1.2.,2013-04-09 17:47:00,
2013-04-09 13:52:00,75.6,56.2,29.94,SW,236,2.0,15.0,51,0.00,,,0.00,295,HR-IXPWINDi_r2_v1.2.,2013-04-09 17:52:00,
2013-04-09 13:58:00,75.4,55.4,29.94,South,180,6.0,13.0,50,0.00,,,0.00,415,HR-IXPWINDi_r2_v1.2.,2013-04-09 17:58:00,
2013-04-09 14:03:00,75.4,56.0,29.94,SW,224,5.0,12.0,51,0.00,,,0.00,330,HR-IXPWINDi_r2_v1.2.,2013-04-09 18:03:00,
2013-04-09 14:08:00,75.4,56.5,29.93,SSW,196,5.0,9.0,52,0.00,,,0.00,388,HR-IXPWINDi_r2_v1.2.,2013-04-09 18:08:00,
2013-04-09 14:13:00,75.8,55.8,29.93,South,189,4.0,11.0,50,0.00,,,0.00,301,HR-IXPWINDi_r2_v1.2.,2013-04-09 18:13:00,
2013-04-09 14:19:00,75.8,55.2,29.93,SSW,193,7.0,12.0,49,0.00,,,0.00,327,HR-IXPWINDi_r2_v1.2.,2013-04-09 18:19:00,
2013-04-09 14:24:00,76.1,57.7,29.93,WNW,290,2.0,12.0,53,0.00,,,0.00,891,HR-IXPWINDi_r2_v1.2.,2013-04-09 18:24:00,
2013-04-09 14:29:00,76.5,55.3,29.93,SSW,203,4.0,14.0,48,0.00,,,0.00,969,HR-IXPWINDi_r2_v1.2.,2013-04-09 18:29:00,
2013-04-09 14:34:00,76.7,54.9,29.93,SW,231,8.0,14.0,47,0.00,,,0.00,274,HR-IXPWINDi_r2_v1.2.,2013-04-09 18:34:00,
2013-04-09 14:39:00,76.5,54.1,29.93,SSE,167,7.0,13.0,46,0.00,,,0.00,239,HR-IXPWINDi_r2_v1.2.,2013-04-09 18:39:00,
2013-04-09 14:44:00,76.5,53.5,29.93,SSW,203,7.0,13.0,45,0.00,,,0.00,283,HR-IXPWINDi_r2_v1.2.,2013-04-09 18:44:00,
2013-04-09 14:49:00,76.5,54.1,29.93,South,187,10.0,16.0,46,0.00,,,0.00,267,HR-IXPWINDi_r2_v1.2.,2013-04-09 18:49:00,
2013-04-09 14:54:00,76.5,54.1,29.92,SSW,209,4.0,16.0,46,0.00,,,0.00,353,HR-IXPWINDi_r2_v1.2.,2013-04-09 18:54:00,
2013-04-09 14:59:00,76.5,54.7,29.92,WSW,242,5.0,15.0,47,0.00,,,0.00,339,HR-IXPWINDi_r2_v1.2.,2013-04-09 18:59:00,
2013-04-09 15:05:00,76.3,55.7,29.92,WSW,237,5.0,14.0,49,0.00,,,0.00,960,HR-IXPWINDi_r2_v1.2.,2013-04-09 19:05:00,
2013-04-09 15:10:00,76.7,55.5,29.91,WNW,297,2.0,9.0,48,0.00,,,0.00,396,HR-IXPWINDi_r2_v1.2.,2013-04-09 19:10:00,
2013-04-09 15:15:00,77.0,54.6,29.91,SSW,198,7.0,11.0,46,0.00,,,0.00,297,HR-IXPWINDi_r2_v1.2.,2013-04-09 19:15:00,
2013-04-09 15:20:00,77.2,53.6,29.91,SSW,198,11.0,11.0,44,0.00,,,0.00,313,HR-IXPWINDi_r2_v1.2.,2013-04-09 19:20:00,
2013-04-09 15:26:00,77.4,53.7,29.90,SSE,151,7.0,15.0,44,0.00,,,0.00,283,HR-IXPWINDi_r2_v1.2.,2013-04-09 19:26:00,
2013-04-09 15:31:00,77.4,53.7,29.90,SSW,210,9.0,16.0,44,0.00,,,0.00,221,HR-IXPWINDi_r2_v1.2.,2013-04-09 19:31:00,
2013-04-09 15:36:00,77.4,54.4,29.90,SSW,210,4.0,16.0,45,0.00,,,0.00,250,HR-IXPWINDi_r2_v1.2.,2013-04-09 19:36:00,
2013-04-09 15:41:00,77.4,54.4,29.90,SSE,153,6.0,13.0,45,0.00,,,0.00,318,HR-IXPWINDi_r2_v1.2.,2013-04-09 19:41:00,
2013-04-09 15:46:00,77.4,54.4,29.90,SSW,211,12.0,13.0,45,0.00,,,0.00,306,HR-IXPWINDi_r2_v1.2.,2013-04-09 19:46:00,
2013-04-09 15:52:00,77.6,53.9,29.88,SSW,203,10.0,14.0,44,0.00,,,0.00,306,HR-IXPWINDi_r2_v1.2.,2013-04-09 19:52:00,
2013-04-09 15:57:00,77.7,54.6,29.88,SSW,203,6.0,14.0,45,0.00,,,0.00,659,HR-IXPWINDi_r2_v1.2.,2013-04-09 19:57:00,
2013-04-09 16:02:00,78.1,54.4,29.88,South,178,2.0,14.0,44,0.00,,,0.00,663,HR-IXPWINDi_r2_v1.2.,2013-04-09 20:02:00,
2013-04-09 16:07:00,78.6,54.2,29.87,SE,142,7.0,12.0,43,0.00,,,0.00,656,HR-IXPWINDi_r2_v1.2.,2013-04-09 20:07:00,
2013-04-09 16:12:00,79.6,54.4,29.87,SE,144,0.0,13.0,42,0.00,,,0.00,647,HR-IXPWINDi_r2_v1.2.,2013-04-09 20:12:00,
2013-04-09 16:18:00,79.6,53.8,29.87,SSW,213,11.0,17.0,41,0.00,,,0.00,234,HR-IXPWINDi_r2_v1.2.,2013-04-09 20:18:00,
2013-04-09 16:23:00,79.4,54.3,29.86,SW,215,9.0,19.0,42,0.00,,,0.00,759,HR-IXPWINDi_r2_v1.2.,2013-04-09 20:23:00,
2013-04-09 16:28:00,79.6,53.1,29.86,SW,221,12.0,19.0,40,0.00,,,0.00,200,HR-IXPWINDi_r2_v1.2.,2013-04-09 20:28:00,
2013-04-09 16:33:00,79.4,53.6,29.86,SSW,206,16.0,19.0,41,0.00,,,0.00,687,HR-IXPWINDi_r2_v1.2.,2013-04-09 20:33:00,
2013-04-09 16:39:00,79.2,52.8,29.86,SW,225,10.0,20.0,40,0.00,,,0.00,199,HR-IXPWINDi_r2_v1.2.,2013-04-09 20:39:00,
2013-04-09 16:44:00,79.2,52.8,29.86,SSW,201,12.0,20.0,40,0.00,,,0.00,192,HR-IXPWINDi_r2_v1.2.,2013-04-09 20:44:00,
2013-04-09 16:50:00,79.2,52.1,29.86,SSW,198,9.0,17.0,39,0.00,,,0.00,220,HR-IXPWINDi_r2_v1.2.,2013-04-09 20:50:00,
2013-04-09 16:55:00,79.4,52.9,29.86,SSE,156,9.0,17.0,40,0.00,,,0.00,584,HR-IXPWINDi_r2_v1.2.,2013-04-09 20:55:00,
2013-04-09 17:01:00,79.6,53.1,29.86,SSW,208,14.0,18.0,40,0.00,,,0.00,167,HR-IXPWINDi_r2_v1.2.,2013-04-09 21:01:00,
2013-04-09 17:06:00,79.8,54.6,29.85,SW,228,11.0,21.0,42,0.00,,,0.00,487,HR-IXPWINDi_r2_v1.2.,2013-04-09 21:06:00,
2013-04-09 17:12:00,79.8,53.3,29.85,SW,229,17.0,22.0,40,0.00,,,0.00,158,HR-IXPWINDi_r2_v1.2.,2013-04-09 21:12:00,
2013-04-09 17:17:00,79.2,52.8,29.85,SW,223,10.0,22.0,40,0.00,,,0.00,160,HR-IXPWINDi_r2_v1.2.,2013-04-09 21:17:00,
2013-04-09 17:22:00,79.0,53.3,29.86,South,184,6.0,17.0,41,0.00,,,0.00,93,HR-IXPWINDi_r2_v1.2.,2013-04-09 21:22:00,
2013-04-09 17:28:00,79.0,52.6,29.86,SSW,212,12.0,17.0,40,0.00,,,0.00,420,HR-IXPWINDi_r2_v1.2.,2013-04-09 21:28:00,
2013-04-09 17:33:00,79.4,52.9,29.86,SSW,192,8.0,17.0,40,0.00,,,0.00,408,HR-IXPWINDi_r2_v1.2.,2013-04-09 21:33:00,
2013-04-09 17:39:00,79.8,53.3,29.85,SSW,208,13.0,17.0,40,0.00,,,0.00,387,HR-IXPWINDi_r2_v1.2.,2013-04-09 21:39:00,
2013-04-09 17:44:00,80.1,52.2,29.85,SSW,204,12.0,19.0,38,0.00,,,0.00,345,HR-IXPWINDi_r2_v1.2.,2013-04-09 21:44:00,
2013-04-09 17:50:00,79.9,53.4,29.85,SSW,212,13.0,19.0,40,0.00,,,0.00,334,HR-IXPWINDi_r2_v1.2.,2013-04-09 21:50:00,
2013-04-09 17:56:00,79.9,53.4,29.85,SW,217,18.0,18.0,40,0.00,,,0.00,100,HR-IXPWINDi_r2_v1.2.,2013-04-09 21:56:00,
2013-04-09 18:01:00,79.8,53.3,29.85,SW,220,9.0,20.0,40,0.00,,,0.00,72,HR-IXPWINDi_r2_v1.2.,2013-04-09 22:01:00,
2013-04-09 18:06:00,79.4,52.9,29.85,SSW,200,10.0,20.0,40,0.00,,,0.00,83,HR-IXPWINDi_r2_v1.2.,2013-04-09 22:06:00,
2013-04-09 18:11:00,79.2,54.1,29.85,SW,227,9.0,19.0,42,0.00,,,0.00,90,HR-IXPWINDi_r2_v1.2.,2013-04-09 22:11:00,
2013-04-09 18:17:00,79.0,53.3,29.85,SW,217,4.0,19.0,41,0.00,,,0.00,156,HR-IXPWINDi_r2_v1.2.,2013-04-09 22:17:00,
2013-04-09 18:23:00,78.8,53.1,29.87,SSW,212,10.0,18.0,41,0.00,,,0.00,214,HR-IXPWINDi_r2_v1.2.,2013-04-09 22:23:00,
2013-04-09 18:28:00,78.8,53.1,29.87,SW,229,6.0,16.0,41,0.00,,,0.00,79,HR-IXPWINDi_r2_v1.2.,2013-04-09 22:28:00,
2013-04-09 18:33:00,78.8,53.7,29.87,SSW,210,12.0,18.0,42,0.00,,,0.00,153,HR-IXPWINDi_r2_v1.2.,2013-04-09 22:33:00,
2013-04-09 18:39:00,78.8,54.4,29.86,SW,221,5.0,18.0,43,0.00,,,0.00,158,HR-IXPWINDi_r2_v1.2.,2013-04-09 22:39:00,
2013-04-09 18:44:00,78.8,53.7,29.86,SW,227,6.0,14.0,42,0.00,,,0.00,141,HR-IXPWINDi_r2_v1.2.,2013-04-09 22:44:00,
2013-04-09 18:49:00,78.8,53.7,29.86,SW,230,5.0,12.0,42,0.00,,,0.00,69,HR-IXPWINDi_r2_v1.2.,2013-04-09 22:49:00,
2013-04-09 18:54:00,78.8,53.7,29.86,SW,215,9.0,15.0,42,0.00,,,0.00,111,HR-IXPWINDi_r2_v1.2.,2013-04-09 22:54:00,
2013-04-09 19:00:00,78.6,53.6,29.86,South,184,10.0,15.0,42,0.00,,,0.00,84,HR-IXPWINDi_r2_v1.2.,2013-04-09 23:00:00,
2013-04-09 19:05:00,78.6,53.6,29.86,SW,217,12.0,14.0,42,0.00,,,0.00,90,HR-IXPWINDi_r2_v1.2.,2013-04-09 23:05:00,
2013-04-09 19:11:00,78.6,53.6,29.86,SW,228,9.0,13.0,42,0.00,,,0.00,60,HR-IXPWINDi_r2_v1.2.,2013-04-09 23:11:00,
2013-04-09 19:17:00,78.6,53.6,29.86,SSW,196,6.0,12.0,42,0.00,,,0.00,33,HR-IXPWINDi_r2_v1.2.,2013-04-09 23:17:00,
2013-04-09 19:22:00,78.5,54.1,29.86,SSW,203,6.0,15.0,43,0.00,,,0.00,26,HR-IXPWINDi_r2_v1.2.,2013-04-09 23:22:00,
2013-04-09 19:28:00,78.5,54.1,29.86,SW,217,8.0,15.0,43,0.00,,,0.00,21,HR-IXPWINDi_r2_v1.2.,2013-04-09 23:28:00,
2013-04-09 19:33:00,78.1,54.4,29.86,SSW,202,6.0,16.0,44,0.00,,,0.00,14,HR-IXPWINDi_r2_v1.2.,2013-04-09 23:33:00,
2013-04-09 19:38:00,77.9,54.2,29.86,South,186,8.0,16.0,44,0.00,,,0.00,11,HR-IXPWINDi_r2_v1.2.,2013-04-09 23:38:00,
2013-04-09 19:43:00,77.6,53.9,29.86,South,189,13.0,13.0,44,0.00,,,0.00,7,HR-IXPWINDi_r2_v1.2.,2013-04-09 23:43:00,
2013-04-09 19:48:00,77.6,53.9,29.86,SSW,210,12.0,15.0,44,0.00,,,0.00,0,HR-IXPWINDi_r2_v1.2.,2013-04-09 23:48:00,
2013-04-09 19:53:00,77.4,53.7,29.86,SSW,202,6.0,15.0,44,0.00,,,0.00,0,HR-IXPWINDi_r2_v1.2.,2013-04-09 23:53:00,
2013-04-09 19:58:00,77.2,53.6,29.86,SW,217,4.0,15.0,44,0.00,,,0.00,0,HR-IXPWINDi_r2_v1.2.,2013-04-09 23:58:00,
2013-04-09 20:03:00,77.0,54.0,29.86,SSW,201,5.0,11.0,45,0.00,,,0.00,0,HR-IXPWINDi_r2_v1.2.,2013-04-10 00:03:00,
2013-04-09 20:08:00,76.8,53.2,29.86,South,190,4.0,11.0,44,0.00,,,0.00,0,HR-IXPWINDi_r2_v1.2.,2013-04-10 00:08:00,
2013-04-09 20:13:00,76.7,53.7,29.86,SSW,199,3.0,11.0,45,0.00,,,0.00,0,HR-IXPWINDi_r2_v1.2.,2013-04-10 00:13:00,
2013-04-09 20:18:00,76.5,53.5,29.86,SSW,211,5.0,11.0,45,0.00,,,0.00,0,HR-IXPWINDi_r2_v1.2.,2013-04-10 00:18:00,
2013-04-09 20:24:00,76.5,53.5,29.85,South,190,4.0,9.0,45,0.00,,,0.00,0,HR-IXPWINDi_r2_v1.2.,2013-04-10 00:24:00,
2013-04-09 20:29:00,76.3,53.4,29.85,SSW,202,3.0,8.0,45,0.00,,,0.00,0,HR-IXPWINDi_r2_v1.2.,2013-04-10 00:29:00,
2013-04-09 20:34:00,76.1,53.8,29.85,SSW,193,4.0,8.0,46,0.00,,,0.00,0,HR-IXPWINDi_r2_v1.2.,2013-04-10 00:34:00,
2013-04-09 20:39:00,76.0,53.7,29.85,SSW,200,4.0,7.0,46,0.00,,,0.00,0,HR-IXPWINDi_r2_v1.2.,2013-04-10 00:39:00,
2013-04-09 20:44:00,75.8,53.5,29.85,SSW,199,3.0,6.0,46,0.00,,,0.00,0,HR-IXPWINDi_r2_v1.2.,2013-04-10 00:44:00,
2013-04-09 20:49:00,75.6,53.9,29.85,SSW,198,3.0,6.0,47,0.00,,,0.00,0,HR-IXPWINDi_r2_v1.2.,2013-04-10 00:49:00,
2013-04-09 20:54:00,75.4,53.7,29.85,SSW,198,3.0,4.0,47,0.00,,,0.00,0,HR-IXPWINDi_r2_v1.2.,2013-04-10 00:54:00,
2013-04-09 21:00:00,75.3,53.6,29.85,SSW,198,1.0,4.0,47,0.00,,,0.00,0,HR-IXPWINDi_r2_v1.2.,2013-04-10 01:00:00,
2013-04-09 21:05:00,74.9,53.8,29.85,South,191,1.0,4.0,48,0.00,,,0.00,0,HR-IXPWINDi_r2_v1.2.,2013-04-10 01:05:00,
2013-04-09 21:10:00,74.7,53.7,29.85,South,186,3.0,5.0,48,0.00,,,0.00,0,HR-IXPWINDi_r2_v1.2.,2013-04-10 01:10:00,
2013-04-09 21:15:00,74.6,53.6,29.85,SSW,192,2.0,5.0,48,0.00,,,0.00,0,HR-IXPWINDi_r2_v1.2.,2013-04-10 01:15:00,
2013-04-09 21:20:00,74.6,54.1,29.85,SSW,192,3.0,5.0,49,0.00,,,0.00,0,HR-IXPWINDi_r2_v1.2.,2013-04-10 01:20:00,
2013-04-09 21:25:00,74.4,53.9,29.85,SSW,192,1.0,4.0,49,0.00,,,0.00,0,HR-IXPWINDi_r2_v1.2.,2013-04-10 01:25:00,
2013-04-09 21:31:00,74.2,53.8,29.85,South,176,2.0,4.0,49,0.00,,,0.00,0,HR-IXPWINDi_r2_v1.2.,2013-04-10 01:31:00,
2013-04-09 21:36:00,74.0,54.1,29.85,South,180,2.0,4.0,50,0.00,,,0.00,0,HR-IXPWINDi_r2_v1.2.,2013-04-10 01:36:00,
2013-04-09 21:41:00,73.9,54.0,29.84,South,180,0.0,4.0,50,0.00,,,0.00,0,HR-IXPWINDi_r2_v1.2.,2013-04-10 01:41:00,
2013-04-09 21:47:00,73.7,54.4,29.84,South,178,2.0,4.0,51,0.00,,,0.00,0,HR-IXPWINDi_r2_v1.2.,2013-04-10 01:47:00,
2013-04-09 21:52:00,73.5,54.2,29.84,SSW,199,2.0,4.0,51,0.00,,,0.00,0,HR-IXPWINDi_r2_v1.2.,2013-04-10 01:52:00,
2013-04-09 21:57:00,73.3,54.0,29.84,SSW,199,3.0,4.0,51,0.00,,,0.00,0,HR-IXPWINDi_r2_v1.2.,2013-04-10 01:57:00,
2013-04-09 22:02:00,73.2,54.5,29.84,SSW,210,0.0,4.0,52,0.00,,,0.00,0,HR-IXPWINDi_r2_v1.2.,2013-04-10 02:02:00,
2013-04-09 22:07:00,73.0,54.3,29.84,SSW,210,2.0,3.0,52,0.00,,,0.00,0,HR-IXPWINDi_r2_v1.2.,2013-04-10 02:07:00,
2013-04-09 22:12:00,72.8,54.1,29.84,SSW,210,0.0,3.0,52,0.00,,,0.00,0,HR-IXPWINDi_r2_v1.2.,2013-04-10 02:12:00,
2013-04-09 22:17:00,72.7,54.0,29.84,SSW,210,0.0,3.0,52,0.00,,,0.00,0,HR-IXPWINDi_r2_v1.2.,2013-04-10 02:17:00,
2013-04-09 22:22:00,72.5,54.3,29.84,SSW,210,0.0,2.0,53,0.00,,,0.00,0,HR-IXPWINDi_r2_v1.2.,2013-04-10 02:22:00,
2013-04-09 22:28:00,72.1,54.0,29.84,SSW,210,0.0,2.0,53,0.00,,,0.00,0,HR-IXPWINDi_r2_v1.2.,2013-04-10 02:28:00,
2013-04-09 22:33:00,71.8,54.2,29.84,SSW,210,0.0,3.0,54,0.00,,,0.00,0,HR-IXPWINDi_r2_v1.2.,2013-04-10 02:33:00,
2013-04-09 22:38:00,71.3,54.2,29.84,SSW,210,1.0,4.0,55,0.00,,,0.00,0,HR-IXPWINDi_r2_v1.2.,2013-04-10 02:38:00,
2013-04-09 22:43:00,70.9,53.9,29.84,SSW,210,2.0,4.0,55,0.00,,,0.00,0,HR-IXPWINDi_r2_v1.2.,2013-04-10 02:43:00,
2013-04-09 22:49:00,70.6,54.1,29.84,SSW,212,4.0,6.0,56,0.00,,,0.00,0,HR-IXPWINDi_r2_v1.2.,2013-04-10 02:49:00,
2013-04-09 22:54:00,70.4,53.9,29.84,SSW,192,3.0,6.0,56,0.00,,,0.00,0,HR-IXPWINDi_r2_v1.2.,2013-04-10 02:54:00,
2013-04-09 22:59:00,70.3,53.8,29.84,SSW,205,4.0,10.0,56,0.00,,,0.00,0,HR-IXPWINDi_r2_v1.2.,2013-04-10 02:59:00,
2013-04-09 23:04:00,70.4,53.4,29.84,SW,224,7.0,10.0,55,0.00,,,0.00,0,HR-IXPWINDi_r2_v1.2.,2013-04-10 03:04:00,
2013-04-09 23:10:00,70.6,53.1,29.84,WSW,239,3.0,12.0,54,0.00,,,0.00,0,HR-IXPWINDi_r2_v1.2.,2013-04-10 03:10:00,
2013-04-09 23:15:00,70.9,52.9,29.84,SSW,208,5.0,16.0,53,0.00,,,0.00,0,HR-IXPWINDi_r2_v1.2.,2013-04-10 03:15:00,
2013-04-09 23:20:00,71.5,52.9,29.84,SSW,211,12.0,16.0,52,0.00,,,0.00,0,HR-IXPWINDi_r2_v1.2.,2013-04-10 03:20:00,
2013-04-09 23:25:00,71.8,52.7,29.84,SW,235,6.0,13.0,51,0.00,,,0.00,0,HR-IXPWINDi_r2_v1.2.,2013-04-10 03:25:00,
2013-04-09 23:30:00,72.1,52.9,29.84,WNW,298,3.0,13.0,51,0.00,,,0.00,0,HR-IXPWINDi_r2_v1.2.,2013-04-10 03:30:00,
2013-04-09 23:35:00,72.3,53.1,29.84,NW,316,0.0,10.0,51,0.00,,,0.00,0,HR-IXPWINDi_r2_v1.2.,2013-04-10 03:35:00,
2013-04-09 23:41:00,72.3,53.1,29.84,NW,310,0.0,7.0,51,0.00,,,0.00,0,HR-IXPWINDi_r2_v1.2.,2013-04-10 03:41:00,
2013-04-09 23:46:00,72.1,52.4,29.84,NW,310,1.0,7.0,50,0.00,,,0.00,0,HR-IXPWINDi_r2_v1.2.,2013-04-10 03:46:00,
2013-04-09 23:51:00,72.1,52.9,29.84,WSW,255,3.0,6.0,51,0.00,,,0.00,0,HR-IXPWINDi_r2_v1.2.,2013-04-10 03:51:00,
2013-04-09 23:56:00,72.0,52.8,29.84,WSW,250,0.0,7.0,51,0.00,,,0.00,0,HR-IXPWINDi_r2_v1.2.,2013-04-10 03:56:00,